Location: Gouy
(50.0008°N, 3.2556°E)
Time: 09:41:48
(UTC+00:00)

Cosmos 1741 Rocket - Pass Details

Date: 23 May 2024
Orbit: 758 x 781 km, 74.0° (Epoch: 14 June)

Event Time Altitude Azimuth Distance (km) Brightness Sun altitude
Exits shadow 01:51:21 20° 196° (SSW) 1,721 5.2 -13.9°
Maximum altitude 01:55:03 79° 111° (ESE) 786 4.0 -13.6°
Drops below altitude 10° 02:00:19 10° 26° (NNE) 2,325 8.0 -13.2°
Sets 02:02:43 0° 25° (NNE) 3,259 9.2 -12.9°
